Back to catalog

CZ-6A DEB

AliveSSO
NORAD 54272·DEBRIS·🇨🇳 China

Launched Nov 11, 2022 from Taiyuan Satellite Launch Center

Loading…

Next Passes (next 24 hours)

TLE

FreshSource: Space-Track

Epoch: Sep 14, 2026, 20:51 UTC

1 54272U 22151P   26257.86885553  .00000475  00000-0  23257-3 0  9999
2 54272  98.8358 292.4199 0027004 281.1521  78.6621 14.22451165198911

Track CZ-6A DEB in real time with AllMySat

Download on the App Store